[[{"header":{"parameterUnit":"m.s-1","parameterCategory":2,"la1":30.2991,"la2":30.254,"lo1":-89.0895,"lo2":-89.0444,"dy":0.0017,"dx":0.0017,"nx":28,"ny":28,"refTime":"2024-08-03T21:00:00:Z","depth":"0","parameterNumber":2,"parameterNumberName":"U-component_of_CURRENTS"},"data":[0,0,0,0,0,0,0,0,0,0,0,0,0,0,0,0,0,0,0,0,0,0,0,0,0,0,0,0,0,0,0,0,0,0,0,0,0,0,0,0,0,0,0,0,0,0,0,0,0,0,0,0,0,0,0,0,0,0,0.2238,0.2238,0,0.2191,0.2189,0.2188,0.2099,0.2099,0.2098,0.2097,0.2009,0.2007,0.2006,0,0,0,0,0,0,0,0,0,0,0,0,0,0.2276,0.2274,0.2238,0.2238,0.2239,0.2191,0.2189,0.2188,0.21,0.2099,0.2098,0.2097,0.2009,0.2007,0.2005,0,0,0,0,0,0,0,0,0,0,0,0,0,0.2236,0.2274,0.2238,0.2197,0.2194,0.2191,0.2189,0.2187,0.21,0.2099,0.2098,0.2097,0.201,0.2008,0.2005,0.201,0,0,0.1997,0.1996,0,0,0,0,0,0,0,0,0.2239,0.2233,0.2203,0.22,0.2197,0.216,0.2171,0.213,0.21,0.2124,0.2097,0.2096,0.2064,0.2057,0.2035,0.2006,0.2002,0.1997,0.1995,0.1994,0.1994,0,0,0,0,0,0,0,0.2241,0.2235,0.2208,0.2204,0.22,0.2191,0.2182,0.2162,0.2091,0.2122,0.2118,0.2131,0.206,0.2037,0.2032,0.2001,0.1997,0.1995,0.1993,0.1992,0.1995,0.1996,0,0,0,0,0,0,0.2269,0.2238,0.221,0.2208,0.2228,0.2192,0.2182,0.2163,0.2092,0.2083,0.2132,0.2127,0.2042,0.2035,0.2029,0.2081,0.1994,0.1992,0.199,0.1993,0.1995,0.1997,0,0,0,0,0,0,0.227,0.2266,0.2212,0.2233,0.2226,0.2193,0.2173,0.2163,0.215,0.2102,0.209,0.2131,0.2041,0.2032,0.2022,0.2075,0.1991,0.1988,0.1991,0.1994,0.1996,0.2153,0,0,0,0,0,0,0.227,0.2265,0.2263,0.2233,0.2227,0.2233,0.2175,0.2164,0.2165,0.2158,0.2098,0.2087,0.204,0.2026,0.2019,0.207,0.1986,0.1989,0.1992,0.1995,0.2146,0.2161,0.2173,0,0,0,0,0,0.2271,0.2275,0.2262,0.2261,0.2223,0.2236,0.2231,0.2197,0.2166,0.2176,0.2128,0.2089,0.204,0.2025,0.2017,0.2068,0.1988,0.1991,0.1995,0.214,0.2158,0.2173,0,0,0,0,0,0,0.2287,0.2267,0.2252,0.2247,0.2257,0.2226,0.2236,0.2213,0.2181,0.2171,0.2106,0.2094,0.2107,0.2062,0.2047,0.2076,0.201,0.2012,0.2123,0.2139,0.2153,0.2145,0.1984,0,0,0,0,0,0.2296,0.2294,0.2283,0.2288,0.2292,0.2267,0.2268,0.2252,0.2226,0.2209,0.2167,0.2127,0.2115,0.2106,0.208,0.2095,0.2099,0.2122,0.2136,0.2148,0.2135,0.2225,0.2248,0.2009,0.2009,0.2009,0,0,0.2313,0.23,0.2302,0.2294,0.2289,0.2305,0.2262,0.228,0.2293,0.2208,0.2202,0.2175,0.2129,0.2146,0.2149,0.2116,0.222,0.2152,0.2163,0.2143,0.2232,0.2255,0.2276,0.2011,0.2011,0.201,0,0,0.2344,0.2328,0.2335,0.2347,0.236,0.2351,0.2366,0.2347,0.2338,0.2342,0.2291,0.2294,0.2256,0.2243,0.2231,0.2304,0.2292,0.2302,0.2366,0.2456,0.2477,0.2496,0.2551,0.2573,0.2308,0.2309,0.2309,0,0.2351,0.2359,0.2348,0.2363,0.2382,0.2377,0.2401,0.2403,0.2384,0.2378,0.236,0.2325,0.2304,0.2326,0.2355,0.2339,0.2374,0.2315,0.2479,0.2497,0.2513,0.2565,0.2587,0.2316,0.2316,0.2315,0.2314,0,0.2387,0.2402,0.2418,0.2426,0.2447,0.248,0.249,0.2499,0.249,0.2478,0.2496,0.2471,0.2441,0.2463,0.2432,0.2529,0.2514,0.2495,0.2447,0.2548,0.2594,0.2615,0.2328,0.2325,0.2323,0.2321,0,0,0.2354,0.2424,0.2425,0.2451,0.2485,0.2502,0.2542,0.2562,0.2568,0.2578,0.2587,0.2606,0.2581,0.2565,0.2548,0.263,0.2799,0.2621,0.2622,0.2691,0.2993,0.2747,0.2745,0.283,0.2834,0.2837,0.2988,0,0.2375,0.2432,0.2453,0.2514,0.2549,0.2565,0.2593,0.2615,0.2621,0.263,0.2642,0.2643,0.2627,0.2624,0.2711,0.2757,0.2856,0.2757,0.2867,0.2869,0.2653,0.2761,0.2529,0.2622,0.3008,0.3011,0.3013,0,0.2381,0.2426,0.2494,0.2558,0.2568,0.2596,0.2629,0.2654,0.2676,0.2678,0.2694,0.2685,0.2763,0.2752,0.2917,0.286,0.2942,0.2996,0.3004,0.2721,0.266,0.2577,0.2644,0.2539,0.3044,0.3042,0.304,0,0.2367,0.2441,0.2502,0.2528,0.2599,0.2614,0.2636,0.2658,0.2668,0.2704,0.2707,0.2779,0.2804,0.2937,0.2985,0.2997,0.316,0.3189,0.305,0.3033,0.282,0.2775,0.2799,0.3349,0.3349,0.3348,0.3348,0,0.237,0.2408,0.25,0.2533,0.2579,0.2615,0.2638,0.266,0.2681,0.2692,0.2723,0.2741,0.2864,0.2928,0.3024,0.3046,0.3192,0.3066,0.306,0.2863,0.2822,0.2699,0.2678,0.3354,0.3353,0.3351,0.3351,0,0.2336,0.2403,0.2472,0.2559,0.2579,0.2603,0.2636,0.2649,0.2667,0.2686,0.2699,0.2751,0.2832,0.2897,0.3079,0.3045,0.2999,0.3101,0.2818,0.2771,0.2505,0.25,0.2427,0.2383,0.3014,0.3009,0.3004,0,0.2318,0.2366,0.2482,0.2521,0.2556,0.2593,0.2616,0.2642,0.265,0.268,0.2692,0.2744,0.2766,0.2847,0.2797,0.2856,0.2849,0.2647,0.2611,0.2444,0.2442,0.2402,0.2372,0.2436,0.2427,0.242,0.2415,0,0.2303,0.2358,0.2434,0.2514,0.2557,0.2579,0.2607,0.2608,0.263,0.2639,0.2646,0.2664,0.2647,0.254,0.2493,0.2501,0.2429,0.2497,0.2444,0.2062,0.191,0.1875,0.2374,0.2351,0.2358,0.2362,0.2366,0.2368,0.2294,0.2345,0.2459,0.2522,0.2558,0.2552,0.2527,0.2544,0.2535,0.2484,0.2566,0.2494,0.2323,0.2211,0.2173,0.1843,0.2032,0.1772,0.1813,0.1815,0.164,0.1938,0.1806,0.1809,0.1812,0.1814,0.1816,0,0.2302,0.2377,0.245,0.2517,0.252,0.2537,0.2514,0.2447,0.2398,0.2354,0.2328,0.2066,0.1863,0.17,0.133,0.1186,0.1198,0.113,0.1089,0.1131,0.1497,0.1329,0.0938,0.0938,0.0938,0.0939,0.0939,0.0939,0.2313,0.2405,0.2457,0.2477,0.2487,0.2403,0.2361,0.2253,0.2169,0.1944,0.1747,0.1679,0.1416,0.1023,0.0723,0.0689,0.0705,0.0555,0.0721,0.1001,0.1067,0.113,0.0968,0.0508,0.0508,0.0264,0.0261,0.026]},{"header":{"parameterUnit":"m.s-1","parameterCategory":2,"la1":30.2991,"la2":30.254,"lo1":-89.0895,"lo2":-89.0444,"dy":0.0017,"dx":0.0017,"nx":28,"ny":28,"refTime":"2024-08-03T21:00:00:Z","depth":"0","parameterNumber":3,"parameterNumberName":"V-component_of_CURRENTS"},"data":[0,0,0,0,0,0,0,0,0,0,0,0,0,0,0,0,0,0,0,0,0,0,0,0,0,0,0,0,0,0,0,0,0,0,0,0,0,0,0,0,0,0,0,0,0,0,0,0,0,0,0,0,0,0,0,0,0,0,0.0005,0.0005,0,-0.0001,-0.0001,-0.0001,-0.001,-0.001,-0.0011,-0.0011,-0.0036,-0.0037,-0.0037,0,0,0,0,0,0,0,0,0,0,0,0,0,0.0004,0.0004,0.0006,0.0005,0.0005,-0.0001,-0.0001,-0.0001,-0.001,-0.001,-0.0011,-0.0011,-0.0036,-0.0037,-0.0037,0,0,0,0,0,0,0,0,0,0,0,0,0,0.0003,0.0004,0.0006,-0.0001,-0.0002,-0.0001,-0.0001,-0.0001,-0.001,-0.001,-0.0011,-0.0011,-0.0036,-0.0037,-0.0037,-0.0032,0,0,-0.0039,-0.0039,0,0,0,0,0,0,0,0,0.0003,0.0004,-0.0,-0.0001,-0.0002,-0.0007,-0.0011,-0.0013,-0.001,-0.0005,-0.0011,-0.0012,-0.0029,-0.003,-0.0028,-0.0033,-0.0034,-0.0039,-0.0039,-0.004,-0.004,0,0,0,0,0,0,0,0.0003,0.0004,0.0005,-0.0,-0.0001,-0.0006,-0.0007,-0.0011,-0.0014,-0.0006,-0.0007,-0.001,-0.0029,-0.0027,-0.0028,-0.0034,-0.0039,-0.004,-0.004,-0.004,-0.0055,-0.0055,0,0,0,0,0,0,0.0002,0.0004,0.0005,0.0004,-0.0002,-0.0006,-0.0006,-0.0003,-0.0013,-0.0015,-0.001,-0.001,-0.0026,-0.0028,-0.0029,-0.0048,-0.004,-0.004,-0.0041,-0.0055,-0.0055,-0.0055,0,0,0,0,0,0,0.0002,0.0002,0.0005,0.0002,0.0002,-0.0006,-0.0002,-0.0003,-0.0004,-0.0016,-0.0019,-0.0009,-0.0026,-0.0029,-0.0036,-0.0048,-0.004,-0.0041,-0.0055,-0.0055,-0.0055,-0.007,0,0,0,0,0,0,0.0002,0.0003,0.0004,0.0002,0.0002,0.0008,-0.0002,-0.0003,-0.0006,-0.0007,-0.0017,-0.0019,-0.0027,-0.0035,-0.0037,-0.0049,-0.0041,-0.0055,-0.0055,-0.0055,-0.007,-0.0071,-0.0072,0,0,0,0,0,0.0002,0.0006,0.0005,0.0004,0.0005,0.0009,0.0009,0.0002,-0.0005,-0.0001,-0.0012,-0.0019,-0.0037,-0.0036,-0.0037,-0.005,-0.0055,-0.0055,-0.0055,-0.0069,-0.0071,-0.0072,0,0,0,0,0,0,0.0001,0.0005,0.0004,0.0007,0.0009,0.0006,0.0008,0.0003,-0.0001,-0.0004,-0.0018,-0.0021,-0.0032,-0.0034,-0.0033,-0.0053,-0.0048,-0.0048,-0.0058,-0.0059,-0.006,-0.0028,-0.0042,0,0,0,0,0,0.0003,0.0009,0.001,0.0012,0.0015,0.0012,0.0012,0.0009,0.0004,0.0002,-0.0008,-0.0019,-0.0032,-0.004,-0.0046,-0.0056,0.0003,-0.0065,-0.0066,-0.0067,-0.0041,0.0076,0.009,-0.0055,-0.0055,-0.0055,0,0,0.0002,0.0005,0.0007,0.0013,0.0015,0.0012,0.0012,0.0015,0.0002,-0.0,-0.0017,-0.002,-0.0034,-0.0047,-0.0053,-0.0053,-0.0006,-0.0067,-0.0068,-0.004,0.0078,0.0093,0.0106,-0.0055,-0.0055,-0.0055,0,0,0.0006,0.0009,0.0017,0.0018,0.0021,0.0015,0.0016,0.0016,0.0007,-0.0003,-0.0014,-0.0006,-0.0038,-0.0036,-0.0045,-0.0049,-0.0011,-0.0074,-0.0057,0.0055,0.0069,0.0082,0.0135,0.0153,-0.0078,-0.0078,-0.0078,0,0.0005,0.0009,0.0019,0.0023,0.0012,0.0015,0.0009,0.0004,-0.0003,0.0001,-0.001,-0.0005,-0.0023,-0.002,-0.0037,-0.0048,0.0004,-0.0057,0.0057,0.0072,0.0086,0.0137,0.0158,-0.0079,-0.0079,-0.0079,-0.0079,0,0.0014,0.0011,0.0015,0.0015,0.0009,0.0006,-0.0005,-0.0004,-0.0015,-0.0011,0.0003,0.0004,0.0019,-0.0006,-0.0034,0.0032,0.0031,0.0048,0.0066,0.01,0.015,0.0172,-0.008,-0.008,-0.008,-0.0079,0,0,0.0024,0.0021,0.0022,0.0013,-0.0,-0.0002,-0.0019,-0.0021,-0.0001,-0.0002,0.0039,0.0007,0.0042,0.0037,0.0024,0.0096,0.0203,0.0101,0.0107,0.0163,0.042,0.0361,0.0379,0.0248,0.0252,0.0256,0.0401,0,0.0024,0.0018,0.0015,-0.0002,-0.0014,-0.002,-0.0027,-0.0025,-0.0012,0.0036,0.0058,0.0094,0.0045,0.007,0.0132,0.0207,0.0266,0.016,0.0372,0.0377,0.0331,0.0405,0.0379,0.0503,0.0422,0.0426,0.0429,0,0.0033,0.002,-0.0,-0.0013,-0.0014,-0.0021,-0.0014,-0.0014,0.0046,0.007,0.0127,0.0163,0.0241,0.0218,0.0378,0.0315,0.0362,0.0414,0.0422,0.0399,0.0362,0.0464,0.0546,0.0511,0.0463,0.046,0.0457,0,0.0026,0.0013,-0.0011,-0.0019,-0.0031,-0.0034,-0.0032,0.0002,0.0037,0.0121,0.0195,0.0276,0.0365,0.0455,0.0516,0.0477,0.0711,0.0682,0.0665,0.0659,0.0697,0.0687,0.0788,0.0815,0.0815,0.0814,0.0814,0,0.0023,0.0012,-0.0011,-0.0023,-0.0025,-0.0033,0.0003,0.0023,0.0106,0.0197,0.023,0.0346,0.0443,0.0563,0.0591,0.0698,0.0779,0.0699,0.0718,0.068,0.0667,0.0686,0.0666,0.082,0.0818,0.0817,0.0816,0,0.0033,0.0012,-0.0007,-0.0028,-0.0028,-0.0024,0.0026,0.0081,0.0143,0.0278,0.0322,0.0458,0.0617,0.0674,0.0844,0.0813,0.0898,0.0906,0.0812,0.0817,0.0737,0.0716,0.0882,0.0897,0.0935,0.0935,0.0935,0,0.0042,0.0027,-0.0003,0.0002,-0.0003,0.0012,0.0047,0.0093,0.0172,0.0357,0.0447,0.0618,0.0761,0.0938,0.0932,0.0983,0.0946,0.0938,0.0854,0.0757,0.0751,0.0739,0.0738,0.0886,0.0886,0.0885,0.0885,0,0.0061,0.0046,0.0036,0.0039,0.0058,0.0092,0.0149,0.0219,0.0321,0.0456,0.0665,0.0796,0.093,0.1001,0.1003,0.1,0.0912,0.0926,0.0903,0.0792,0.072,0.0733,0.0714,0.0881,0.0881,0.0882,0.0882,0.0882,0.0088,0.0091,0.0082,0.0091,0.0121,0.0188,0.0257,0.036,0.0508,0.0737,0.0819,0.1031,0.1032,0.1056,0.1022,0.0882,0.0918,0.0828,0.0832,0.0842,0.0805,0.0728,0.0858,0.0858,0.0859,0.0859,0.0859,0,0.0115,0.0124,0.0143,0.0165,0.0225,0.0224,0.0346,0.045,0.0656,0.0847,0.1033,0.1132,0.1133,0.1056,0.0876,0.0799,0.0785,0.076,0.0757,0.0779,0.0791,0.073,0.0746,0.0746,0.0746,0.0746,0.0746,0.0746,0.0134,0.0153,0.0159,0.025,0.0291,0.0402,0.0487,0.0647,0.0797,0.1021,0.1135,0.1213,0.1119,0.0909,0.0756,0.0725,0.0724,0.0698,0.0728,0.0714,0.072,0.0726,0.0665,0.0666,0.0666,0.0713,0.0713,0.0713]}],[{"header":{"parameterUnit":"m.s-1","parameterCategory":2,"la1":30.2991,"la2":30.254,"lo1":-89.0895,"lo2":-89.0444,"dy":0.0017,"dx":0.0017,"nx":28,"ny":28,"refTime":"2024-08-03T21:00:00:Z","depth":"2","parameterNumber":2,"parameterNumberName":"U-component_of_CURRENTS"},"data":[0,0,0,0,0,0,0,0,0,0,0,0,0,0,0,0,0,0,0,0,0,0,0,0,0,0,0,0,0,0,0,0,0,0,0,0,0,0,0,0,0,0,0,0,0,0,0,0,0,0,0,0,0,0,0,0,0,0,0.1287,0.1288,0,0.1351,0.1351,0.1352,0.1357,0.1357,0.1356,0.1356,0.1383,0.1384,0.1385,0,0,0,0,0,0,0,0,0,0,0,0,0,0.1285,0.1284,0.1287,0.1288,0.1289,0.1351,0.1351,0.1352,0.1357,0.1357,0.1356,0.1355,0.1382,0.1384,0.1385,0,0,0,0,0,0,0,0,0,0,0,0,0,0.1309,0.1284,0.1287,0.13,0.1302,0.135,0.1351,0.1352,0.1358,0.1357,0.1356,0.1355,0.1382,0.1384,0.1386,0.1414,0,0,0.1391,0.1392,0,0,0,0,0,0,0,0,0.1308,0.1309,0.1297,0.1299,0.1301,0.1346,0.1361,0.1372,0.1358,0.1335,0.1356,0.1355,0.1369,0.1372,0.1384,0.1415,0.1416,0.1392,0.1393,0.1393,0.1394,0,0,0,0,0,0,0,0.1306,0.1307,0.1311,0.1298,0.1301,0.1342,0.1344,0.1363,0.1354,0.1337,0.1338,0.1347,0.1369,0.1382,0.1385,0.1417,0.1391,0.1393,0.1394,0.1395,0.1425,0.1425,0,0,0,0,0,0,0.1296,0.1305,0.1309,0.1313,0.1304,0.1343,0.1344,0.1332,0.1355,0.1358,0.1348,0.1347,0.138,0.1383,0.1386,0.144,0.1393,0.1395,0.1396,0.1425,0.1425,0.1425,0,0,0,0,0,0,0.1295,0.1294,0.1306,0.1313,0.1317,0.1343,0.1329,0.1333,0.1365,0.1364,0.1366,0.1377,0.1379,0.1383,0.1403,0.144,0.1396,0.1398,0.1426,0.1425,0.1425,0.1535,0,0,0,0,0,0,0.1294,0.1293,0.1313,0.1311,0.1317,0.1334,0.1331,0.1335,0.1372,0.1372,0.139,0.139,0.1379,0.14,0.1405,0.1441,0.1399,0.1426,0.1425,0.1425,0.1532,0.1538,0.1544,0,0,0,0,0,0.1294,0.1319,0.1313,0.1316,0.1331,0.1335,0.1342,0.1357,0.1374,0.1384,0.1393,0.1391,0.1398,0.1402,0.1407,0.1446,0.1426,0.1426,0.1425,0.1529,0.1537,0.1544,0,0,0,0,0,0,0.1333,0.1322,0.1315,0.1337,0.1334,0.1336,0.1371,0.1376,0.1397,0.1395,0.1403,0.1404,0.1433,0.1413,0.1417,0.1442,0.1406,0.1406,0.1483,0.1491,0.1497,0.1506,0.1401,0,0,0,0,0,0.1348,0.1348,0.1345,0.1353,0.1367,0.1375,0.1394,0.138,0.1387,0.1398,0.1426,0.1429,0.1432,0.1441,0.1439,0.147,0.15,0.1486,0.1492,0.1498,0.1503,0.1622,0.1643,0.1422,0.1422,0.1422,0,0,0.1345,0.1356,0.1346,0.1361,0.1372,0.1381,0.1384,0.1392,0.1394,0.1397,0.1447,0.1462,0.1443,0.1467,0.1477,0.146,0.1568,0.1497,0.1503,0.1505,0.1624,0.1647,0.1667,0.1422,0.1422,0.1422,0,0,0.1352,0.1371,0.1378,0.1389,0.1403,0.14,0.1407,0.1425,0.1436,0.1447,0.1466,0.1512,0.1506,0.1535,0.1532,0.1571,0.1599,0.1555,0.1606,0.1723,0.1744,0.1763,0.1811,0.1834,0.1559,0.1559,0.1559,0,0.1368,0.1366,0.1382,0.1409,0.1422,0.1413,0.142,0.1428,0.1447,0.1473,0.1453,0.1526,0.1535,0.1596,0.1605,0.1595,0.1639,0.1592,0.174,0.1759,0.1777,0.1822,0.1845,0.1564,0.1564,0.1563,0.1563,0,0.137,0.1386,0.1402,0.1418,0.1437,0.1434,0.1439,0.1468,0.1476,0.1488,0.1551,0.1579,0.1625,0.1639,0.163,0.176,0.1743,0.1746,0.1741,0.1808,0.1847,0.187,0.1572,0.157,0.1568,0.1567,0,0,0.1354,0.1392,0.1397,0.142,0.1436,0.145,0.1465,0.1488,0.1529,0.1548,0.1623,0.1659,0.1709,0.1711,0.1749,0.1849,0.2018,0.1855,0.1859,0.1935,0.2245,0.1971,0.1968,0.2072,0.2077,0.2081,0.2218,0,0.1351,0.1396,0.1406,0.1434,0.1464,0.1473,0.1498,0.1519,0.154,0.1618,0.1661,0.1732,0.1721,0.1777,0.1877,0.1996,0.2085,0.1977,0.2139,0.2142,0.192,0.1988,0.181,0.1895,0.224,0.2244,0.2247,0,0.1359,0.1389,0.1422,0.1469,0.1485,0.1501,0.1565,0.1579,0.1656,0.168,0.1758,0.1799,0.1946,0.1926,0.2153,0.2091,0.2171,0.2244,0.2251,0.1972,0.1909,0.1883,0.1924,0.2285,0.2282,0.2279,0.2276,0,0.1367,0.1409,0.1438,0.1453,0.1499,0.1529,0.1553,0.1615,0.165,0.1755,0.1807,0.1938,0.2037,0.217,0.2261,0.2254,0.2484,0.2495,0.2309,0.2289,0.215,0.2106,0.2656,0.2656,0.2656,0.2656,0.2655,0,0.1368,0.1396,0.1455,0.1476,0.1523,0.1559,0.162,0.1656,0.1736,0.18,0.1867,0.1948,0.2117,0.2229,0.2311,0.2341,0.2523,0.2321,0.2318,0.2169,0.2128,0.2469,0.2445,0.2661,0.266,0.2659,0.2658,0,0.1356,0.1391,0.1443,0.1506,0.1533,0.1574,0.1645,0.1693,0.1765,0.186,0.1902,0.2025,0.2129,0.2212,0.2424,0.238,0.2455,0.2415,0.2167,0.2126,0.2177,0.2158,0.2261,0.2252,0.2245,0.2239,0.2234,0,0.1347,0.1379,0.1468,0.1509,0.1537,0.1601,0.1643,0.1705,0.1747,0.189,0.1937,0.2048,0.207,0.2178,0.2136,0.2147,0.2289,0.1975,0.1902,0.2156,0.2144,0.2135,0.2125,0.1789,0.1781,0.1775,0.1769,0,0.1341,0.1389,0.1436,0.1507,0.1567,0.1611,0.1673,0.1704,0.1783,0.1835,0.19,0.1931,0.1944,0.1832,0.177,0.1768,0.1941,0.1826,0.2262,0.1844,0.1703,0.1692,0.1702,0.171,0.1716,0.172,0.1723,0.1726,0.1358,0.1383,0.1462,0.1514,0.1575,0.1607,0.1611,0.165,0.1676,0.1687,0.1774,0.1709,0.1694,0.1446,0.1397,0.1334,0.1484,0.146,0.1488,0.1522,0.1369,0.1215,0.1102,0.1105,0.1107,0.1109,0.111,0,0.1376,0.1409,0.1463,0.1512,0.1531,0.1594,0.1617,0.1571,0.1539,0.1516,0.148,0.1259,0.1138,0.1132,0.0929,0.0875,0.0956,0.0847,0.0989,0.1045,0.1095,0.0929,0.0543,0.0542,0.054,0.0539,0,0,0.1388,0.1429,0.1435,0.1455,0.1499,0.1503,0.1504,0.1403,0.133,0.1174,0.1063,0.1059,0.1074,0.0798,0.0739,0.0626,0.0846,0.058,0.1031,0.1256,0.1306,0.1429,0.1228,0,0,0,0,0]},{"header":{"parameterUnit":"m.s-1","parameterCategory":2,"la1":30.2991,"la2":30.254,"lo1":-89.0895,"lo2":-89.0444,"dy":0.0017,"dx":0.0017,"nx":28,"ny":28,"refTime":"2024-08-03T21:00:00:Z","depth":"2","parameterNumber":3,"parameterNumberName":"V-component_of_CURRENTS"},"data":[0,0,0,0,0,0,0,0,0,0,0,0,0,0,0,0,0,0,0,0,0,0,0,0,0,0,0,0,0,0,0,0,0,0,0,0,0,0,0,0,0,0,0,0,0,0,0,0,0,0,0,0,0,0,0,0,0,0,-0.0011,-0.0012,0,-0.0019,-0.0019,-0.0019,-0.0021,-0.0021,-0.0021,-0.0021,-0.0045,-0.0045,-0.0046,0,0,0,0,0,0,0,0,0,0,0,0,0,-0.0019,-0.0019,-0.0011,-0.0012,-0.0012,-0.0019,-0.0019,-0.0019,-0.0021,-0.0021,-0.0021,-0.0021,-0.0045,-0.0045,-0.0046,0,0,0,0,0,0,0,0,0,0,0,0,0,-0.002,-0.0019,-0.0011,-0.0014,-0.0014,-0.0019,-0.0019,-0.0019,-0.0021,-0.0021,-0.0021,-0.0021,-0.0044,-0.0045,-0.0046,-0.0052,0,0,-0.0049,-0.005,0,0,0,0,0,0,0,0,-0.0019,-0.0019,-0.0013,-0.0014,-0.0014,-0.0019,-0.003,-0.0031,-0.0021,-0.0018,-0.0021,-0.0021,-0.0038,-0.004,-0.004,-0.0053,-0.0054,-0.0049,-0.005,-0.005,-0.005,0,0,0,0,0,0,0,-0.0019,-0.0019,-0.0014,-0.0014,-0.0014,-0.0022,-0.0021,-0.003,-0.0028,-0.0018,-0.0018,-0.002,-0.0038,-0.0039,-0.0041,-0.0055,-0.0049,-0.005,-0.0051,-0.0051,-0.0072,-0.0072,0,0,0,0,0,0,-0.0018,-0.0019,-0.0014,-0.0014,-0.0017,-0.0021,-0.0021,-0.0017,-0.0027,-0.0029,-0.002,-0.002,-0.0037,-0.004,-0.0042,-0.0077,-0.005,-0.0051,-0.0052,-0.0072,-0.0072,-0.0072,0,0,0,0,0,0,-0.0018,-0.0018,-0.0013,-0.0017,-0.0017,-0.0021,-0.0017,-0.0017,-0.0021,-0.0029,-0.003,-0.0024,-0.0038,-0.004,-0.0052,-0.0077,-0.0052,-0.0052,-0.0072,-0.0072,-0.0072,-0.0129,0,0,0,0,0,0,-0.0018,-0.0017,-0.0019,-0.0017,-0.0017,-0.0014,-0.0017,-0.0018,-0.0022,-0.0023,-0.0033,-0.0035,-0.0038,-0.005,-0.0053,-0.0077,-0.0053,-0.0072,-0.0072,-0.0072,-0.0127,-0.0131,-0.0134,0,0,0,0,0,-0.0019,-0.0018,-0.0019,-0.0019,-0.0017,-0.0014,-0.0015,-0.0018,-0.0023,-0.0022,-0.0031,-0.0034,-0.0051,-0.0051,-0.0054,-0.008,-0.0072,-0.0072,-0.0072,-0.0126,-0.013,-0.0134,0,0,0,0,0,0,-0.0021,-0.0018,-0.0019,-0.0017,-0.0016,-0.0015,-0.0017,-0.002,-0.0027,-0.0028,-0.0038,-0.004,-0.0057,-0.0053,-0.0053,-0.0081,-0.0061,-0.0061,-0.0101,-0.0105,-0.0109,-0.0076,-0.0054,0,0,0,0,0,-0.0022,-0.0021,-0.0019,-0.0018,-0.0017,-0.0019,-0.0021,-0.0019,-0.0023,-0.0026,-0.0039,-0.0047,-0.0058,-0.0069,-0.007,-0.0093,-0.0039,-0.0106,-0.011,-0.0113,-0.0086,-0.0013,-0.0007,-0.0072,-0.0072,-0.0072,0,0,-0.0022,-0.0022,-0.002,-0.0018,-0.0018,-0.0023,-0.002,-0.0017,-0.0027,-0.0028,-0.0051,-0.0057,-0.0062,-0.0084,-0.0092,-0.0088,-0.0072,-0.0113,-0.0116,-0.0086,-0.0012,-0.0005,0.0001,-0.0072,-0.0072,-0.0072,0,0,-0.0018,-0.002,-0.0017,-0.002,-0.0019,-0.0023,-0.0024,-0.0027,-0.0034,-0.0046,-0.0056,-0.0065,-0.0088,-0.0097,-0.0104,-0.0122,-0.0086,-0.0139,-0.0144,-0.0076,-0.0069,-0.0063,-0.0009,0.0002,-0.015,-0.015,-0.015,0,-0.0022,-0.002,-0.0016,-0.0019,-0.0026,-0.0026,-0.003,-0.0038,-0.0048,-0.0047,-0.0053,-0.0064,-0.0084,-0.0101,-0.0122,-0.013,-0.0086,-0.0138,-0.0079,-0.0072,-0.0064,-0.001,0.0003,-0.0153,-0.0153,-0.0152,-0.0152,0,-0.0014,-0.0021,-0.0021,-0.0029,-0.0033,-0.0036,-0.0045,-0.0051,-0.006,-0.006,-0.0063,-0.0078,-0.0077,-0.0105,-0.0129,-0.0108,-0.0094,-0.0087,-0.0069,-0.0061,-0.0006,0.001,-0.0157,-0.0156,-0.0155,-0.0154,0,0,-0.0002,-0.0015,-0.0016,-0.0026,-0.0041,-0.004,-0.0056,-0.0059,-0.0047,-0.0062,-0.004,-0.0087,-0.0078,-0.0083,-0.0114,-0.0079,-0.0024,-0.0075,-0.007,-0.0023,0.0124,0.0066,0.0077,-0.0009,-0.0006,-0.0004,0.0133,0,-0.0002,-0.0016,-0.0019,-0.0036,-0.0048,-0.0052,-0.006,-0.0059,-0.0053,-0.0031,-0.0035,-0.0026,-0.0079,-0.0079,-0.0056,-0.0008,0.0019,-0.0061,0.0112,0.0118,0.0064,0.0094,0.0074,0.0189,0.0148,0.0151,0.0153,0,0.0007,-0.0011,-0.0032,-0.0041,-0.0042,-0.0051,-0.0042,-0.0045,-0.0015,-0.0,0.0016,0.0026,0.005,0.0018,0.0113,0.0066,0.0087,0.012,0.0126,0.0113,0.0089,0.018,0.0219,0.0179,0.0177,0.0175,0.0173,0,0.0005,-0.0013,-0.0036,-0.0045,-0.0058,-0.006,-0.0059,-0.0037,-0.001,0.0025,0.0077,0.0103,0.0154,0.0194,0.0227,0.0185,0.0363,0.0321,0.0288,0.0284,0.0326,0.032,0.0398,0.0398,0.0397,0.0397,0.0397,0,0.0001,-0.0012,-0.004,-0.0057,-0.0057,-0.0063,-0.0034,-0.0024,0.0031,0.0107,0.009,0.0186,0.0208,0.0294,0.0293,0.0353,0.0421,0.0313,0.0326,0.0299,0.029,0.0331,0.0321,0.0402,0.0401,0.04,0.0399,0,0.0008,-0.0017,-0.0039,-0.0062,-0.0063,-0.0062,-0.0019,0.0031,0.0062,0.017,0.019,0.029,0.0402,0.0409,0.0513,0.0457,0.0504,0.0495,0.0445,0.0447,0.0359,0.0345,0.0486,0.0485,0.0484,0.0484,0.0483,0,0.0009,-0.0009,-0.0039,-0.0031,-0.0043,-0.0033,0.0007,0.0035,0.0107,0.0262,0.0343,0.0458,0.0572,0.0668,0.0594,0.0578,0.0559,0.0514,0.0407,0.0375,0.0374,0.036,0.0347,0.0445,0.0444,0.0443,0.0443,0,0.0013,-0.0,-0.0008,0.0004,0.0025,0.0061,0.0115,0.0184,0.0272,0.0393,0.0604,0.0707,0.0741,0.0736,0.0634,0.0602,0.0504,0.0496,0.0549,0.0392,0.0338,0.0335,0.0324,0.0438,0.0438,0.0439,0.0439,0.0439,0.0029,0.0038,0.0039,0.0067,0.0098,0.0177,0.0251,0.0358,0.051,0.0694,0.0776,0.0888,0.0816,0.0679,0.0615,0.0479,0.0483,0.0417,0.042,0.0422,0.036,0.0304,0.0387,0.0387,0.0387,0.0387,0.0387,0,0.0056,0.0083,0.0116,0.0156,0.0232,0.0212,0.0354,0.0462,0.0686,0.0779,0.0929,0.0846,0.0806,0.0695,0.0482,0.0377,0.0364,0.0344,0.0354,0.036,0.0365,0.0298,0.031,0.031,0.0309,0.0309,0,0,0.0077,0.0123,0.0154,0.0277,0.0312,0.0412,0.0506,0.0671,0.0763,0.09,0.0908,0.0922,0.0797,0.0629,0.0514,0.0405,0.0397,0.0376,0.0447,0.0477,0.0483,0.0414,0.0318,0,0,0,0,0]}],[{"header":{"parameterUnit":"m.s-1","parameterCategory":2,"la1":30.2991,"la2":30.254,"lo1":-89.0895,"lo2":-89.0444,"dy":0.0017,"dx":0.0017,"nx":28,"ny":28,"refTime":"2024-08-03T21:00:00:Z","depth":"4","parameterNumber":2,"parameterNumberName":"U-component_of_CURRENTS"},"data":[0,0,0,0,0,0,0,0,0,0,0,0,0,0,0,0,0,0,0,0,0,0,0,0,0,0,0,0,0,0,0,0,0,0,0,0,0,0,0,0,0,0,0,0,0,0,0,0,0,0,0,0,0,0,0,0,0,0,0.0407,0.0407,0,0.0433,0.0434,0.0434,0.0462,0.0462,0.0463,0.0463,0.0481,0.0482,0.0482,0,0,0,0,0,0,0,0,0,0,0,0,0,0.0403,0.0402,0.0407,0.0407,0.0408,0.0433,0.0434,0.0434,0.0462,0.0462,0.0463,0.0463,0.0481,0.0482,0.0482,0,0,0,0,0,0,0,0,0,0,0,0,0,0.0414,0.0402,0.0407,0.0425,0.0427,0.0433,0.0434,0.0434,0.0462,0.0462,0.0463,0.0463,0.0481,0.0482,0.0482,0.047,0,0,0.0482,0.0482,0,0,0,0,0,0,0,0,0.0413,0.0414,0.0422,0.0424,0.0426,0.0445,0.0439,0.0446,0.0461,0.0448,0.0463,0.0464,0.0468,0.047,0.0473,0.0471,0.0472,0.0482,0.0482,0.0482,0.0482,0,0,0,0,0,0,0,0.0412,0.0413,0.0417,0.0422,0.0425,0.0439,0.0441,0.044,0.0454,0.0449,0.0451,0.0455,0.0469,0.0473,0.0473,0.0472,0.0482,0.0482,0.0482,0.0483,0.0479,0.0479,0,0,0,0,0,0,0.0408,0.0412,0.0416,0.0418,0.0421,0.0438,0.0441,0.0438,0.0454,0.0457,0.0454,0.0456,0.0472,0.0473,0.0474,0.0482,0.0482,0.0483,0.0483,0.048,0.0479,0.0479,0,0,0,0,0,0,0.0407,0.0408,0.0415,0.0416,0.0418,0.0438,0.0435,0.0438,0.0458,0.0458,0.0461,0.0471,0.0473,0.0474,0.049,0.0483,0.0483,0.0483,0.048,0.0479,0.0479,0.0485,0,0,0,0,0,0,0.0407,0.0407,0.0416,0.0416,0.0418,0.0415,0.0434,0.0438,0.0458,0.0461,0.0473,0.0475,0.0473,0.049,0.049,0.0483,0.0483,0.048,0.048,0.0479,0.0485,0.0485,0.0485,0,0,0,0,0,0.0407,0.0403,0.0416,0.0418,0.0426,0.0414,0.0416,0.0433,0.0458,0.0456,0.048,0.0476,0.0487,0.0491,0.0491,0.0483,0.048,0.048,0.0479,0.0485,0.0485,0.0485,0,0,0,0,0,0,0.0406,0.0406,0.042,0.0418,0.0419,0.0419,0.0419,0.0441,0.0459,0.0466,0.0482,0.0484,0.0489,0.0489,0.0492,0.048,0.0479,0.0479,0.0484,0.0484,0.0483,0.0481,0.0483,0,0,0,0,0,0.041,0.041,0.041,0.0411,0.0405,0.042,0.0426,0.0434,0.0444,0.0454,0.0473,0.0484,0.0484,0.0489,0.0485,0.0488,0.0505,0.048,0.048,0.048,0.0477,0.0557,0.0565,0.0478,0.0478,0.0478,0,0,0.0407,0.0413,0.0411,0.0412,0.0411,0.0385,0.0424,0.042,0.0412,0.0451,0.046,0.0484,0.0485,0.0483,0.0485,0.0486,0.05,0.0479,0.0479,0.0476,0.0557,0.0566,0.0574,0.0478,0.0478,0.0478,0,0,0.0385,0.0403,0.0387,0.0377,0.0377,0.0376,0.0378,0.0387,0.0404,0.041,0.0442,0.0474,0.0467,0.0482,0.0482,0.048,0.0497,0.0475,0.0476,0.0554,0.0562,0.057,0.055,0.0556,0.0477,0.0477,0.0477,0,0.0388,0.0359,0.0381,0.0353,0.0333,0.0368,0.0327,0.0344,0.0368,0.04,0.0403,0.046,0.0459,0.0486,0.0479,0.048,0.0507,0.0478,0.0557,0.0565,0.0573,0.0551,0.0558,0.0478,0.0478,0.0478,0.0477,0,0.0343,0.0315,0.0297,0.0271,0.026,0.0227,0.0237,0.0263,0.0293,0.0331,0.0385,0.0413,0.0471,0.0455,0.0458,0.0516,0.0506,0.055,0.0563,0.0583,0.0557,0.0564,0.0478,0.0478,0.0478,0.0478,0,0,0.0356,0.0277,0.0275,0.0236,0.0206,0.0193,0.0185,0.0203,0.026,0.0288,0.0362,0.0361,0.0455,0.0462,0.0502,0.0539,0.0589,0.0569,0.0573,0.0555,0.0709,0.0652,0.0653,0.0677,0.0679,0.0681,0.0648,0,0.031,0.0216,0.0206,0.0128,0.0064,0.0092,0.0109,0.0148,0.0203,0.0298,0.0358,0.0443,0.0439,0.0507,0.0548,0.0602,0.0618,0.0589,0.0685,0.0685,0.0642,0.0665,0.069,0.0654,0.0655,0.0657,0.0657,0,0.0266,0.0203,0.0092,0.0053,0.0043,0.004,0.0091,0.0119,0.0253,0.0324,0.0431,0.0508,0.0585,0.0593,0.0674,0.0671,0.0686,0.0692,0.0694,0.0649,0.0645,0.0642,0.0671,0.067,0.0669,0.0668,0.0667,0,0.0221,0.0137,0.0042,0.001,-0.0024,-0.0004,0.0041,0.0146,0.0212,0.0388,0.0463,0.0586,0.0664,0.0724,0.0741,0.074,0.0806,0.0818,0.0751,0.0743,0.0801,0.0794,0.0865,0.0865,0.0865,0.0865,0.0865,0,0.0151,0.0084,0.0032,-0.003,-0.0029,-0.0011,0.0062,0.0149,0.0298,0.0398,0.052,0.0599,0.0713,0.076,0.0772,0.0778,0.0847,0.0742,0.0753,0.0792,0.0785,0.0802,0.0796,0.0864,0.0864,0.0864,0.0865,0,0.0078,0.0031,-0.0071,-0.0098,-0.0075,-0.0056,0.0066,0.0147,0.0296,0.0426,0.0489,0.0629,0.0708,0.0756,0.0832,0.0803,0.0822,0.0799,0.0776,0.0788,0.0679,0.0673,0.0717,0.0716,0.0714,0.0713,0.0712,0,0.0029,-0.006,-0.0124,-0.0117,-0.0123,-0.0067,0.0004,0.0149,0.0236,0.0421,0.048,0.0593,0.0674,0.072,0.0776,0.0793,0.0784,0.0756,0.0754,0.0668,0.0675,0.0671,0.0667,0.0709,0.0709,0.0709,0.0708,0,-0.0086,-0.0122,-0.0194,-0.0185,-0.0138,-0.0096,0.0016,0.0074,0.0252,0.0352,0.0493,0.0559,0.063,0.0694,0.0719,0.0725,0.0769,0.074,0.0742,0.074,0.0659,0.0666,0.0664,0.0703,0.0704,0.0704,0.0704,0,-0.0138,-0.0196,-0.0257,-0.0232,-0.0183,-0.0108,-0.0056,0.0068,0.017,0.0382,0.0405,0.0535,0.0628,0.0654,0.0675,0.0694,0.0675,0.0637,0.0645,0.0651,0.0649,0.0538,0.0555,0,0,0,0,0,-0.0175,-0.0237,-0.026,-0.024,-0.0194,-0.0144,-0.0034,0.0031,0.0169,0.0263,0.0356,0.0436,0.0519,0.0564,0.0571,0.0602,0.0646,0.06,0.0598,0.0674,0.068,0.0687,0,0,0,0,0,0,-0.0189,-0.0258,-0.0292,-0.0244,-0.0208,-0.014,-0.0071,0.0019,0.0091,0.0228,0.0284,0.0376,0.0462,0.0517,0.0555,0.0565,0.0546,0.0668,0.0666,0.0671,0.0676,0.0681,0.069,0,0,0,0,0]},{"header":{"parameterUnit":"m.s-1","parameterCategory":2,"la1":30.2991,"la2":30.254,"lo1":-89.0895,"lo2":-89.0444,"dy":0.0017,"dx":0.0017,"nx":28,"ny":28,"refTime":"2024-08-03T21:00:00:Z","depth":"4","parameterNumber":3,"parameterNumberName":"V-component_of_CURRENTS"},"data":[0,0,0,0,0,0,0,0,0,0,0,0,0,0,0,0,0,0,0,0,0,0,0,0,0,0,0,0,0,0,0,0,0,0,0,0,0,0,0,0,0,0,0,0,0,0,0,0,0,0,0,0,0,0,0,0,0,0,0.0109,0.0109,0,0.0118,0.0119,0.0119,0.0124,0.0124,0.0124,0.0124,0.014,0.014,0.0141,0,0,0,0,0,0,0,0,0,0,0,0,0,0.0091,0.0092,0.0109,0.0109,0.0109,0.0118,0.0119,0.0119,0.0124,0.0124,0.0124,0.0124,0.014,0.014,0.0141,0,0,0,0,0,0,0,0,0,0,0,0,0,0.0101,0.0092,0.0109,0.0112,0.0112,0.0118,0.0119,0.0119,0.0124,0.0124,0.0124,0.0124,0.0139,0.014,0.0141,0.0148,0,0,0.0143,0.0144,0,0,0,0,0,0,0,0,0.01,0.0101,0.0111,0.0112,0.0112,0.0119,0.0118,0.0129,0.0124,0.012,0.0124,0.0123,0.0133,0.0134,0.0138,0.0149,0.015,0.0143,0.0144,0.0144,0.0144,0,0,0,0,0,0,0,0.0099,0.0101,0.0114,0.0111,0.0112,0.0111,0.0113,0.012,0.0128,0.0121,0.0121,0.012,0.0133,0.0137,0.0138,0.015,0.0143,0.0144,0.0144,0.0145,0.0173,0.0173,0,0,0,0,0,0,0.0097,0.01,0.0113,0.0114,0.0104,0.0112,0.0113,0.0118,0.0128,0.0129,0.0121,0.0121,0.0136,0.0137,0.0139,0.0174,0.0144,0.0145,0.0145,0.0173,0.0173,0.0174,0,0,0,0,0,0,0.0096,0.0098,0.0113,0.0106,0.0108,0.0112,0.0117,0.0118,0.0121,0.0127,0.0129,0.0123,0.0136,0.0138,0.0145,0.0174,0.0145,0.0146,0.0173,0.0173,0.0173,0.0228,0,0,0,0,0,0,0.0096,0.0098,0.01,0.0106,0.0108,0.0124,0.0117,0.0118,0.0121,0.0121,0.013,0.0131,0.0136,0.0143,0.0145,0.0174,0.0146,0.0172,0.0173,0.0173,0.0226,0.023,0.0234,0,0,0,0,0,0.0095,0.0103,0.01,0.0101,0.0111,0.0125,0.0126,0.0129,0.0121,0.013,0.0128,0.0131,0.0149,0.0144,0.0146,0.0176,0.0172,0.0173,0.0173,0.0224,0.0229,0.0234,0,0,0,0,0,0,0.0098,0.0104,0.0101,0.011,0.0118,0.0125,0.0132,0.0129,0.0135,0.0134,0.0133,0.0135,0.0154,0.0149,0.0144,0.0183,0.0162,0.0163,0.0199,0.0205,0.0209,0.0219,0.0147,0,0,0,0,0,0.0099,0.0104,0.0111,0.0117,0.0123,0.0126,0.0129,0.0133,0.0138,0.014,0.0141,0.0144,0.0159,0.0167,0.0173,0.0194,0.0161,0.0212,0.0217,0.022,0.0229,0.0179,0.018,0.0176,0.0176,0.0176,0,0,0.0101,0.0103,0.0107,0.0118,0.0124,0.015,0.0129,0.0141,0.0171,0.0141,0.0171,0.0157,0.0164,0.019,0.0198,0.0191,0.0205,0.0221,0.0225,0.0231,0.018,0.018,0.0181,0.0176,0.0176,0.0176,0,0,0.0112,0.0112,0.0124,0.0138,0.015,0.0161,0.0165,0.0173,0.0186,0.0203,0.0194,0.019,0.0207,0.0219,0.0229,0.0256,0.0224,0.026,0.0299,0.0251,0.0251,0.025,0.0213,0.0209,0.0267,0.0267,0.0267,0,0.0112,0.0136,0.013,0.0152,0.0178,0.017,0.0206,0.0222,0.023,0.0243,0.022,0.0221,0.0227,0.026,0.0277,0.0269,0.0232,0.0284,0.0256,0.0255,0.0254,0.0215,0.021,0.027,0.0269,0.0269,0.0269,0,0.0138,0.0165,0.0177,0.0209,0.0233,0.0262,0.0289,0.0307,0.0309,0.0312,0.0322,0.03,0.0302,0.0304,0.0308,0.0313,0.0288,0.0263,0.0245,0.0257,0.0216,0.0209,0.0273,0.0272,0.0272,0.0271,0,0,0.0131,0.0185,0.0193,0.0234,0.0273,0.0303,0.0354,0.0399,0.0419,0.0407,0.0421,0.0434,0.0391,0.0398,0.0379,0.0346,0.0313,0.031,0.0306,0.0276,0.0207,0.0224,0.0218,0.0275,0.0274,0.0273,0.0183,0,0.016,0.0223,0.0245,0.0328,0.0373,0.0401,0.0449,0.0484,0.0484,0.0488,0.0465,0.0466,0.0439,0.0429,0.0392,0.0331,0.0297,0.034,0.0197,0.0193,0.0209,0.0211,0.027,0.0178,0.0176,0.0175,0.0174,0,0.0185,0.0233,0.0317,0.0407,0.0429,0.0483,0.0554,0.059,0.0597,0.0593,0.0567,0.0524,0.0503,0.0456,0.0352,0.0375,0.0307,0.0245,0.0239,0.0233,0.0198,0.0161,0.0162,0.0163,0.0164,0.0165,0.0165,0,0.0202,0.029,0.0368,0.0401,0.049,0.055,0.0599,0.0625,0.065,0.0654,0.0634,0.0585,0.0546,0.0453,0.0343,0.0342,0.0199,0.0177,0.0125,0.0124,0.0111,0.0112,0.0095,0.0096,0.0096,0.0096,0.0096,0,0.0236,0.0298,0.0393,0.0443,0.054,0.0591,0.0662,0.0699,0.0713,0.0712,0.0685,0.0639,0.0536,0.0438,0.0346,0.022,0.02,0.0136,0.0103,0.0137,0.0142,0.0106,0.0108,0.0093,0.0093,0.0094,0.0095,0,0.0244,0.0298,0.04,0.0518,0.0555,0.0632,0.0719,0.0742,0.0764,0.0752,0.0756,0.068,0.0563,0.0451,0.0291,0.0223,0.0106,0.0066,0.0122,0.0093,0.0062,0.0068,0.0,-0.0,-0.0,-0.0,-0.0,0,0.0251,0.0303,0.0447,0.0501,0.0567,0.0666,0.071,0.0773,0.078,0.0751,0.0731,0.0641,0.0571,0.0365,0.0259,0.0106,0.0082,0.0031,0.0046,0.0077,0.0052,0.0059,0.0065,-0.0,-0.0001,-0.0001,-0.0001,0,0.0267,0.0322,0.0398,0.0506,0.059,0.0667,0.0737,0.0743,0.077,0.0785,0.0702,0.0611,0.0479,0.0347,0.0246,0.0126,0.0073,0.0029,0.0028,0.0042,0.0076,0.0052,0.0059,-0.0001,-0.0001,-0.0001,-0.0001,0,0.0269,0.0315,0.0403,0.0503,0.0591,0.0646,0.0689,0.07,0.0722,0.0699,0.0657,0.0546,0.0491,0.0353,0.0243,0.0157,0.0128,0.0095,0.009,0.0089,0.0153,0.0211,0.0151,0,0,0,0,0,0.0276,0.0314,0.0385,0.0483,0.0561,0.0627,0.0685,0.0708,0.0721,0.0667,0.0673,0.0558,0.041,0.0343,0.0257,0.0229,0.0108,0.0126,0.0066,-0.0003,-0.0002,0.006,0,0,0,0,0,0,0.0274,0.0336,0.037,0.0442,0.0504,0.0581,0.0634,0.0641,0.0619,0.062,0.0545,0.0538,0.0398,0.046,0.0254,0.0229,0.0178,0.0072,0.007,-0.0003,-0.0003,-0.0002,0.0062,0,0,0,0,0]}]]